SCP
0 0 0 0 0 0 -0 -0 -0 -0 -0 -0 -0 -0 -0 -0 -0 0 0 0 0 0 0 -0 0 -0 0 0 0 0 0 0 0
0 0 0 -0 -0 0 0 0 -0 -0 -0 -0 -0 -0 0 0 0 0 0 0 0 0 0 -0 0 -0 0 0 0 -0 -0 -0 -0
0 0 0 0 0 -0 0 -0 -0 -0 -0 -0 -1 -1 -0 0 0 1 0 1 0 0 0 -0 -0 -0 -0 -0 0 0 -0 -0 -0
0 0 0 0 0 0 0 0 0 -0 -0 -0 -0 -1 -1 -0 0 0 1 1 1 0 0 0 -0 -0 -0 -0 -0 0 -0 -0 -0
0 0 0 0 0 0 0 0 0 -0 0 -0 -0 -0 -0 -0 0 0 0 0 1 1 1 0 0 -0 -0 -0 -0 -0 0 0 0
0 0 0 0 0 0 0 0 0 0 0 0 -0 -0 -0 -0 -0 0 -0 -0 -0 -0 0 0 0 0 0 -0 -0 -0 0 0 0
0 0 0 0 0 0 0 0 0 0 0 0 0 0 0 0 -0 -0 -0 -0 -0 -0 -1 -0 0 0 0 0 0 -0 0 0 0
0 0 0 0 0 0 1 1 0 0 0 0 0 0 0 -0 -0 0 0 0 -0 -0 -0 -0 -0 0 0 0 0 0 0 0 0
-0 0 0 0 0 0 0 1 0 0 0 0 0 0 0 0 1 1 0 0 -0 -0 -0 -0 -0 -0 0 0 0 0 0 0 1
0 0 0 0 0 0 1 1 1 0 0 1 1 0 1 1 1 0 0 1 1 0 -0 0 -0 -0 0 0 0 0 0 0 1
0 0 0 0 0 0 0 0 0 1 1 1 1 1 1 1 1 1 1 1 1 1 1 1 1 1 1 1 1 0 0 0 2
0 0 0 0 0 0 0 0 0 1 1 1 2 0 0 1 1 1 2 1 1 2 2 2 2 1 1 1 2 1 0 0 2
0 0 0 0 0 0 0 0 0 0 1 1 1 0 -0 0 2 3 3 2 2 3 3 4 3 3 2 1 2 1 0 0 4
-0 0 0 0 0 0 0 0 0 1 0 0 0 1 2 2 2 3 4 5 6 4 3 3 4 4 4 3 3 3 0 0 6
-0 0 0 0 0 0 0 0 0 1 1 1 2 2 2 3 3 2 3 5 5 5 5 4 -0 4 2 3 5 2 0 0 0
-0 -0 0 0 0 0 1 1 0 1 2 2 2 1 1 2 2 2 3 3 4 4 4 4 4 9 6 4 4 3 0 0 0
-0 0 1 1 2 3 4 3 2 1 1 1 2 1 1 2 1 2 2 2 3 3 4 5 8 9 4 4 5 4 0 0 0
2 1 2 3 3 4 5 4 4 4 2 1 1 2 2 2 2 2 3 1 3 4 5 3 2 5 9 3 0 0 0 0 0
6 4 4 5 5 4 4 5 5 4 4 4 4 3 3 1 1 1 0 0 0 0 0 1 1 0 0 0 0 0 0 0 0
1 1 1 2 2 3 4 4 3 4 3 3 2 1 0 0 0 0 0 0 0 0 0 0 0 0 0 0 0 0 0 0 0
Wind_Speed_500mb
63 66 75 82 89 92 100 97 96 98 97 94 93 93 93 89 85 82 73 67 66 61 56 49 49 48 46 44 41 39 36 34 33
53 65 75 82 88 98 105 106 103 100 99 93 93 92 91 93 91 88 82 70 63 66 59 53 54 52 49 48 47 44 41 39 38
56 61 65 75 82 90 103 107 106 105 99 97 91 91 88 89 90 91 87 78 71 63 64 58 61 60 55 53 49 48 46 45 43
65 62 66 72 78 88 96 98 97 106 108 105 100 93 91 89 89 91 91 88 79 70 63 65 66 68 67 63 58 53 53 52 50
56 54 60 59 64 72 74 92 95 105 104 107 107 101 94 93 88 87 91 93 86 78 73 68 69 70 74 73 67 60 59 58 59
38 47 47 56 49 62 77 88 96 99 101 100 100 104 104 100 97 96 94 94 91 87 82 76 74 74 75 79 80 74 67 64 63
30 32 42 41 41 53 69 80 89 93 92 92 93 92 94 101 102 101 94 92 92 92 89 84 82 80 78 78 83 82 76 71 68
35 30 34 41 39 47 57 69 81 86 89 91 91 90 91 89 88 92 94 97 93 91 95 92 86 84 82 81 84 90 89 84 80
51 54 47 46 43 37 48 63 73 80 86 90 90 90 87 85 86 86 87 92 92 90 94 98 96 95 90 88 89 93 94 88 87
55 50 41 41 43 40 39 42 57 74 80 85 90 91 87 89 89 89 89 88 89 91 96 99 104 102 100 98 93 92 93 93 91
65 71 68 68 72 66 61 55 53 58 72 80 85 86 86 87 91 90 91 88 87 89 93 99 105 108 106 104 98 94 93 94 94
86 91 86 85 72 62 57 60 63 65 71 74 77 79 83 83 86 89 90 90 88 90 94 95 102 108 110 110 104 98 96 96 96
84 92 95 87 69 67 58 57 59 59 67 73 74 73 72 79 80 86 87 88 91 90 93 92 93 101 108 112 112 107 104 101 102
56 68 65 59 62 57 46 50 52 58 62 72 69 68 67 70 73 76 80 82 84 83 80 65 81 89 94 98 103 109 114 110 109
54 50 48 52 55 52 53 51 51 49 60 62 64 68 71 71 66 67 65 68 72 72 62 57 40 76 85 88 81 95 101 104 96
41 49 39 36 48 52 48 39 34 41 57 58 63 54 50 50 49 46 52 57 56 53 52 68 77 78 80 81 67 72 75 62 64
30 35 33 29 34 38 33 26 25 26 30 38 36 28 19 22 32 41 43 44 42 42 49 57 69 58 65 66 63 67 69 53 52
32 33 34 36 39 38 35 27 21 17 19 24 25 28 28 28 31 35 39 42 42 44 45 46 48 53 65 66 68 71 70 65 56
49 50 52 50 52 48 46 41 37 32 27 23 19 20 21 21 23 28 31 34 39 36 35 32 41 48 55 63 63 63 55 38 39
50 51 50 45 47 42 39 36 35 32 26 22 18 14 16 20 24 26 27 30 27 22 19 25 36 41 30 31 18 11 3 18 41
Wind_Direction_500mb
224 217 215 217 218 221 230 230 230 231 231 227 228 231 231 233 235 236 237 238 239 239 237 241 229 225 231 239 243 244 247 244 240
220 216 217 220 221 223 228 233 234 231 232 231 229 230 233 235 236 236 237 236 236 239 240 240 229 228 239 236 240 241 240 240 236
223 223 220 224 223 221 225 231 235 238 235 235 232 230 231 235 238 238 237 237 236 235 237 236 233 231 235 231 236 236 235 236 234
217 220 224 224 224 226 226 227 230 236 238 236 234 233 233 234 239 241 239 239 238 235 235 235 234 232 233 234 233 234 236 236 235
229 228 228 229 229 226 220 223 223 233 235 238 235 233 233 233 234 239 241 239 240 238 235 235 235 234 232 233 234 235 236 238 237
238 243 241 243 232 225 229 228 226 228 232 233 236 233 232 235 238 239 241 242 239 239 236 235 234 236 235 233 234 235 235 236 238
259 248 240 235 239 240 235 231 230 229 231 231 232 234 233 234 236 239 241 244 241 237 237 235 234 235 237 236 234 233 235 234 235
282 254 238 231 234 246 241 233 233 233 234 231 229 232 235 237 238 238 240 242 241 237 236 235 233 234 236 238 236 234 233 233 234
282 280 257 244 252 234 240 238 235 234 233 231 231 235 240 241 240 240 238 239 240 239 236 235 234 233 234 236 237 237 235 234 235
253 253 265 267 245 254 261 255 242 235 234 233 233 236 240 241 242 242 241 239 238 238 236 235 234 233 234 236 238 240 240 237 237
258 265 271 267 267 266 268 259 246 241 236 236 237 237 237 241 243 244 244 241 240 240 237 235 235 235 234 236 239 241 243 243 239
256 259 262 265 267 272 268 259 252 240 232 235 236 238 240 243 245 245 245 245 244 241 240 239 237 238 239 238 239 241 242 243 241
256 255 256 261 260 262 269 248 248 244 238 234 238 240 244 245 243 245 246 249 247 243 242 242 241 239 241 244 244 243 244 243 244
274 279 259 250 252 252 252 246 252 255 243 236 241 247 250 252 253 252 251 251 251 250 248 244 249 246 246 247 250 252 251 247 244
275 273 263 245 237 232 242 257 253 245 240 239 239 244 250 254 254 253 250 251 251 249 246 252 290 270 259 255 249 255 258 259 255
261 262 267 248 232 231 238 242 241 242 233 228 233 246 256 249 246 251 251 251 247 238 243 236 218 241 255 258 259 263 267 269 266
223 229 236 214 201 197 197 205 212 207 214 225 229 236 242 244 249 248 243 240 235 225 218 229 236 242 245 249 255 256 257 256 254
178 172 163 167 165 151 141 140 143 155 179 196 204 210 214 212 212 219 226 223 222 229 237 238 237 240 239 239 239 243 249 242 236
135 131 127 126 124 121 119 123 123 123 124 129 144 169 184 194 200 204 212 223 229 232 232 248 249 246 251 240 245 243 242 231 201
124 118 115 113 113 111 113 115 120 118 118 117 121 137 151 164 176 187 195 202 218 226 196 205 205 192 170 157 98 103 256 216 202
Wind_Speed_850mb
63 66 75 82 89 92 100 97 96 98 97 94 93 93 93 89 85 82 73 67 66 61 56 49 49 48 46 44 41 39 36 34 33
53 65 75 82 88 98 105 106 103 100 99 93 93 92 91 93 91 88 82 70 63 66 59 53 54 52 49 48 47 44 41 39 38
56 61 65 75 82 90 103 107 106 105 99 97 91 91 88 89 90 91 87 78 71 63 64 58 61 60 55 53 49 48 46 45 43
65 62 66 72 78 88 96 98 97 106 108 105 100 93 91 89 89 91 91 88 79 70 63 65 66 68 67 63 58 53 53 52 50
56 54 60 59 64 72 74 92 95 105 104 107 107 101 94 93 88 87 91 93 86 78 73 68 69 70 74 73 67 60 59 58 59
38 47 47 56 49 62 77 88 96 99 101 100 100 104 104 100 97 96 94 94 91 87 82 76 74 74 75 79 80 74 67 64 63
30 32 42 41 41 53 69 80 89 93 92 92 93 92 94 101 102 101 94 92 92 92 89 84 82 80 78 78 83 82 76 71 68
35 30 34 41 39 47 57 69 81 86 89 91 91 90 91 89 88 92 94 97 93 91 95 92 86 84 82 81 84 90 89 84 80
51 54 47 46 43 37 48 63 73 80 86 90 90 90 87 85 86 86 87 92 92 90 94 98 96 95 90 88 89 93 94 88 87
55 50 41 41 43 40 39 42 57 74 80 85 90 91 87 89 89 89 89 88 89 91 96 99 104 102 100 98 93 92 93 93 91
65 71 68 68 72 66 61 55 53 58 72 80 85 86 86 87 91 90 91 88 87 89 93 99 105 108 106 104 98 94 93 94 94
86 91 86 85 72 62 57 60 63 65 71 74 77 79 83 83 86 89 90 90 88 90 94 95 102 108 110 110 104 98 96 96 96
84 92 95 87 69 67 58 57 59 59 67 73 74 73 72 79 80 86 87 88 91 90 93 92 93 101 108 112 112 107 104 101 102
56 68 65 59 62 57 46 50 52 58 62 72 69 68 67 70 73 76 80 82 84 83 80 65 81 89 94 98 103 109 114 110 109
54 50 48 52 55 52 53 51 51 49 60 62 64 68 71 71 66 67 65 68 72 72 62 57 40 76 85 88 81 95 101 104 96
41 49 39 36 48 52 48 39 34 41 57 58 63 54 50 50 49 46 52 57 56 53 52 68 77 78 80 81 67 72 75 62 64
30 35 33 29 34 38 33 26 25 26 30 38 36 28 19 22 32 41 43 44 42 42 49 57 69 58 65 66 63 67 69 53 52
32 33 34 36 39 38 35 27 21 17 19 24 25 28 28 28 31 35 39 42 42 44 45 46 48 53 65 66 68 71 70 65 56
49 50 52 50 52 48 46 41 37 32 27 23 19 20 21 21 23 28 31 34 39 36 35 32 41 48 55 63 63 63 55 38 39
50 51 50 45 47 42 39 36 35 32 26 22 18 14 16 20 24 26 27 30 27 22 19 25 36 41 30 31 18 11 3 18 41
Wind_Direction_850mb
224 217 215 217 218 221 230 230 230 231 231 227 228 231 231 233 235 236 237 238 239 239 237 241 229 225 231 239 243 244 247 244 240
220 216 217 220 221 223 228 233 234 231 232 231 229 230 233 235 236 236 237 236 236 239 240 240 229 228 239 236 240 241 240 240 236
223 223 220 224 223 221 225 231 235 238 235 235 232 230 231 235 238 238 237 237 236 235 237 236 233 231 235 231 236 236 235 236 234
217 220 224 224 224 226 226 227 230 236 238 236 234 233 233 234 239 241 239 239 238 235 235 235 234 232 233 234 233 234 236 236 235
229 228 228 229 229 226 220 223 223 233 235 238 235 233 233 233 234 239 241 239 240 238 235 235 235 234 232 233 234 235 236 238 237
238 243 241 243 232 225 229 228 226 228 232 233 236 233 232 235 238 239 241 242 239 239 236 235 234 236 235 233 234 235 235 236 238
259 248 240 235 239 240 235 231 230 229 231 231 232 234 233 234 236 239 241 244 241 237 237 235 234 235 237 236 234 233 235 234 235
282 254 238 231 234 246 241 233 233 233 234 231 229 232 235 237 238 238 240 242 241 237 236 235 233 234 236 238 236 234 233 233 234
282 280 257 244 252 234 240 238 235 234 233 231 231 235 240 241 240 240 238 239 240 239 236 235 234 233 234 236 237 237 235 234 235
253 253 265 267 245 254 261 255 242 235 234 233 233 236 240 241 242 242 241 239 238 238 236 235 234 233 234 236 238 240 240 237 237
258 265 271 267 267 266 268 259 246 241 236 236 237 237 237 241 243 244 244 241 240 240 237 235 235 235 234 236 239 241 243 243 239
256 259 262 265 267 272 268 259 252 240 232 235 236 238 240 243 245 245 245 245 244 241 240 239 237 238 239 238 239 241 242 243 241
256 255 256 261 260 262 269 248 248 244 238 234 238 240 244 245 243 245 246 249 247 243 242 242 241 239 241 244 244 243 244 243 244
274 279 259 250 252 252 252 246 252 255 243 236 241 247 250 252 253 252 251 251 251 250 248 244 249 246 246 247 250 252 251 247 244
275 273 263 245 237 232 242 257 253 245 240 239 239 244 250 254 254 253 250 251 251 249 246 252 290 270 259 255 249 255 258 259 255
261 262 267 248 232 231 238 242 241 242 233 228 233 246 256 249 246 251 251 251 247 238 243 236 218 241 255 258 259 263 267 269 266
223 229 236 214 201 197 197 205 212 207 214 225 229 236 242 244 249 248 243 240 235 225 218 229 236 242 245 249 255 256 257 256 254
178 172 163 167 165 151 141 140 143 155 179 196 204 210 214 212 212 219 226 223 222 229 237 238 237 240 239 239 239 243 249 242 236
135 131 127 126 124 121 119 123 123 123 124 129 144 169 184 194 200 204 212 223 229 232 232 248 249 246 251 240 245 243 242 231 201
124 118 115 113 113 111 113 115 120 118 118 117 121 137 151 164 176 187 195 202 218 226 196 205 205 192 170 157 98 103 256 216 202